Simultaneous Nadir Overpasses (SNOs) Predictions

Prediction of SNOs between LANDSAT-8 and METOP-A Satellite Orbit:

Table of predicted SNOs for the next 14.0 days since TLE Epoch: 3/4/2017
Index Date (LANDSAT-8) Time (LANDSAT-8) Lat,Lon (LANDSAT-8) SZA (LANDSAT-8 ) Date (METOP-A) Time (METOP-A) Lat,Lon (METOP-A) SZA (METOP-A ) Distance(km) Time Diff (sec)
1 03/05/2017 19:03:26 -81.13, 113.71 91.42 03/05/2017 19:02:26 -81.12, 113.52 91.46 3.28 60
2 03/05/2017 19:52:51 81.16, -78.19 88.64 03/05/2017 19:53:04 81.16, -78.06 88.66 2.23 13
3 03/08/2017 14:37:39 -81.14,-179.58 92.46 03/08/2017 14:36:47 -81.14,-179.48 92.47 1.78 52
4 03/08/2017 15:27:05 81.15, -11.88 87.55 03/08/2017 15:27:27 81.15, -11.86 87.56 0.42 22
5 03/11/2017 10:11:52 -81.14,-113.28 93.56 03/11/2017 10:11:09 -81.14,-113.25 93.57 0.48 43
6 03/11/2017 11:01:17 81.16, 54.77 86.49 03/11/2017 11:01:48 81.16, 54.71 86.50 1.20 31
7 03/14/2017 05:46:05 -81.15, -46.65 94.62 03/14/2017 05:45:31 -81.14, -46.66 94.63 0.66 34
8 03/14/2017 06:35:31 81.15, 121.01 85.38 03/14/2017 06:36:11 81.15, 120.87 85.38 2.23 40
9 03/17/2017 01:20:19 -81.13, 19.57 95.74 03/17/2017 01:19:54 -81.13, 19.53 95.75 0.64 25




NCC Satellite Simultaneous Nadir Overpasses (SNOs) Prediction Service
